This is the latest recevied weather packets stored in our database for station/object LX1CU-13. If no packets are shown the sender has not sent any weather packets the latest 10 day(s).
| Time | Temp. | Humidity | Pressure | Rain* | Wind** | Luminosity | Snow |
|---|---|---|---|---|---|---|---|
| 1777321134 | 11.11° C | 57% | 1014.8 hPa | 0 mm | - | - | - |
| 1777320834 | 11.11° C | 56% | 1014.7 hPa | 0 mm | - | - | - |
| 1777320534 | 11.67° C | 56% | 1014.8 hPa | 0 mm | - | - | - |
| 1777320234 | 11.67° C | 56% | 1014.8 hPa | 0 mm | - | - | - |
| 1777319934 | 11.67° C | 56% | 1014.7 hPa | 0 mm | - | - | - |
| 1777319634 | 11.67° C | 54% | 1014.8 hPa | 0 mm | - | - | - |
| 1777319334 | 11.67° C | 54% | 1014.8 hPa | 0 mm | - | - | - |
| 1777319034 | 11.67° C | 54% | 1014.7 hPa | 0 mm | - | - | - |
| 1777318734 | 12.22° C | 53% | 1014.8 hPa | 0 mm | - | - | - |
| 1777318434 | 12.22° C | 53% | 1014.8 hPa | 0 mm | - | - | - |
| 1777318134 | 12.22° C | 51% | 1014.8 hPa | 0 mm | - | - | - |
| 1777317834 | 12.78° C | 51% | 1014.7 hPa | 0 mm | - | - | - |
| 1777317534 | 12.78° C | 51% | 1014.7 hPa | 0 mm | - | - | - |
| 1777317234 | 13.33° C | 50% | 1014.7 hPa | 0 mm | - | - | - |
| 1777316934 | 13.33° C | 50% | 1014.6 hPa | 0 mm | - | - | - |
| 1777316634 | 13.33° C | 50% | 1014.8 hPa | 0 mm | - | - | - |
| 1777316334 | 13.89° C | 49% | 1014.7 hPa | 0 mm | - | - | - |
| 1777316034 | 14.44° C | 48% | 1014.6 hPa | 0 mm | - | - | - |
| 1777315734 | 14.44° C | 47% | 1014.7 hPa | 0 mm | - | - | - |
| 1777315434 | 15° C | 46% | 1014.7 hPa | 0 mm | - | - | - |
| 1777315134 | 15.56° C | 45% | 1014.6 hPa | 0 mm | - | - | - |
| 1777314834 | 16.11° C | 44% | 1014.6 hPa | 0 mm | - | - | - |
| 1777314534 | 16.67° C | 42% | 1014.4 hPa | 0 mm | - | - | - |
| 1777314234 | 17.22° C | 41% | 1014.6 hPa | 0 mm | - | - | - |
| 1777313934 | 17.78° C | 40% | 1014.6 hPa | 0 mm | - | - | - |
* Rain latest hour (hover to see other rain measurements)
** Current wind speed in m/s (hover to see current wind gust speed)